This is the latest recevied weather packets stored in our database for station/object KD5UMO-1. If no packets are shown the sender has not sent any weather packets the latest 10 day(s).
| Time | Temp. | Humidity | Pressure | Rain* | Wind** | Luminosity | Snow |
|---|---|---|---|---|---|---|---|
| 1777836014 | 27.78° C | 34% | 1018.9 hPa | 0 mm | - | 879 W/m² | - |
| 1777835711 | 27.22° C | 33% | 1018.9 hPa | 0 mm | - | 879 W/m² | - |
| 1777835408 | 27.22° C | 34% | 1019 hPa | 0 mm | - | 872 W/m² | - |
| 1777835105 | 27.22° C | 34% | 1019.2 hPa | 0 mm | - | 876 W/m² | - |
| 1777834802 | 27.22° C | 35% | 1019 hPa | 0 mm | - | 878 W/m² | - |
| 1777834498 | 27.78° C | 35% | 1019.1 hPa | 0 mm | - | 885 W/m² | - |
| 1777834197 | 27.78° C | 35% | 1019.2 hPa | 0 mm | - | 884 W/m² | - |
| 1777833894 | 27.22° C | 37% | 1019.4 hPa | 0 mm | - | 862 W/m² | - |
| 1777833591 | 27.22° C | 36% | 1019.4 hPa | 0 mm | - | 882 W/m² | - |
| 1777833287 | 27.22° C | 34% | 1019.6 hPa | 0 mm | - | 890 W/m² | - |
| 1777832984 | 26.67° C | 36% | 1019.7 hPa | 0 mm | - | 889 W/m² | - |
| 1777832683 | 26.67° C | 36% | 1019.7 hPa | 0 mm | - | 892 W/m² | - |
| 1777832380 | 26.67° C | 35% | 1019.8 hPa | 0 mm | - | 891 W/m² | - |
| 1777832077 | 26.67° C | 35% | 1019.8 hPa | 0 mm | - | 889 W/m² | - |
| 1777831773 | 26.67° C | 39% | 1019.9 hPa | 0 mm | - | 896 W/m² | - |
| 1777831472 | 26.67° C | 38% | 1020 hPa | 0 mm | - | 901 W/m² | - |
| 1777831168 | 26.67° C | 36% | 1020.3 hPa | 0 mm | - | 900 W/m² | - |
| 1777830866 | 26.11° C | 38% | 1020.2 hPa | 0 mm | - | 897 W/m² | - |
| 1777830561 | 26.11° C | 39% | 1020.4 hPa | 0 mm | - | 888 W/m² | - |
| 1777830260 | 26.11° C | 40% | 1020.6 hPa | 0 mm | - | 894 W/m² | - |
| 1777829960 | 26.11° C | 40% | 1020.5 hPa | 0 mm | - | 891 W/m² | - |
| 1777829656 | 26.11° C | 40% | 1020.7 hPa | 0 mm | - | 884 W/m² | - |
| 1777829353 | 26.11° C | 41% | 1020.5 hPa | 0 mm | - | 879 W/m² | - |
| 1777829051 | 26.11° C | 42% | 1020.9 hPa | 0 mm | - | 879 W/m² | - |
| 1777828747 | 26.11° C | 41% | 1020.7 hPa | 0 mm | - | 871 W/m² | - |
* Rain latest hour (hover to see other rain measurements)
** Current wind speed in m/s (hover to see current wind gust speed)